This is the latest recevied weather packets stored in our database for station/object WMSA. If no packets are shown the sender has not sent any weather packets the latest 10 day(s).
| Time | Temp. | Humidity | Pressure | Rain* | Wind** | Luminosity | Snow |
|---|---|---|---|---|---|---|---|
| 1777918198 | 25.56° C | 94% | 1009 hPa | - | - | - | - |
| 1777910994 | 26.67° C | 83% | 1010 hPa | - | - | - | - |
| 1777903796 | 26.67° C | 88% | 1009 hPa | - | - | - | - |
| 1777896593 | 27.78° C | 83% | 1008 hPa | - | - | - | - |
| 1777892998 | 27.78° C | 83% | 1008 hPa | - | - | - | - |
| 1777889393 | 28.89° C | 74% | 1007 hPa | - | - | - | - |
| 1777885793 | 28.89° C | 79% | 1007 hPa | - | - | - | - |
| 1777882193 | 28.89° C | 83% | 1008 hPa | - | - | - | - |
| 1777881587 | 30° C | 79% | 1009 hPa | - | - | - | - |
| 1777878597 | 30° C | 79% | 1009 hPa | - | - | - | - |
| 1777876785 | 27.78° C | 88% | 1010 hPa | - | - | - | - |
| 1777876187 | 27.78° C | 88% | 1010 hPa | - | - | - | - |
| 1777874992 | 26.67° C | 88% | 1010 hPa | - | - | - | - |
| 1777871392 | 26.67° C | 94% | 1011 hPa | - | - | - | - |
| 1777870185 | 25.56° C | 94% | 1011 hPa | - | - | - | - |
| 1777868385 | 26.67° C | 94% | 1011 hPa | - | - | - | - |
| 1777864197 | 30.56° C | 74% | 1011 hPa | - | - | - | - |
| 1777828197 | 26.67° C | 88% | 1010 hPa | - | - | - | - |
| 1777806593 | 26.67° C | 88% | 1007 hPa | - | - | - | - |
| 1777802991 | 25.56° C | 88% | 1007 hPa | - | - | - | - |
| 1777799390 | 25.56° C | 94% | 1006 hPa | - | - | - | - |
| 1777798185 | 25.56° C | 94% | 1006 hPa | - | - | - | - |
| 1777795796 | 25.56° C | 94% | 1007 hPa | - | - | - | - |
| 1777793983 | 25.56° C | 88% | 1007 hPa | - | - | - | - |
| 1777792784 | 27.78° C | 78% | 1007 hPa | - | - | - | - |
* Rain since midnight (hover to see other rain measurements)
** Current wind speed in m/s (hover to see current wind gust speed)